Salida, CO

1:21 PM MST on December 15, 2017 (GMT -0700)
Salida

Weather History for KANK - November, 2012

Change the Weather History Date:

Thursday, November 22, 2012

  Actual Average (KGUC) Record (KGUC)
Temperature  
Mean Temperature 47 °F -  
Max Temperature 60 °F 35 °F 53 °F (2012)
Min Temperature 33 °F 11 °F 0 °F (2007)
Degree Days  
Heating Degree Days 18    
Moisture  
Dew Point 14 °F    
Average Humidity 28    
Maximum Humidity 65    
Minimum Humidity 14    
Precipitation  
Precipitation 0.00 in - - ()
Sea Level Pressure  
Sea Level Pressure 30.30 in    
Wind  
Wind Speed 14 mph (SW)    
Max Wind Speed 25 mph    
Max Gust Speed 34 mph    
Visibility 10 miles    
Events      
Averages and records for this station are not official NWS values.
T = Trace of Precipitation, MM = Missing Value Source: NWS Daily Summary

Daily Weather History Graph

Daily Weather History Graph

Search for Another Location

Airport or City:

Trip Planner

Search our weather history database for the weather conditions in past years. The results will help you decide how hot, cold, wet, or windy it might be!

Date:

Astronomy

Nov. 22, 2012 Rise Set
Actual Time 6:54 AM MST 4:46 PM MST
Civil Twilight 6:25 AM MST 5:15 PM MST
Nautical Twilight 5:52 AM MST 5:47 PM MST
Astronomical Twilight 5:21 AM MST 6:19 PM MST
Moon 1:30 PM MST (11/22) 1:20 AM MST (11/22)
Length of Visible Light 10h 49m
Length of Day
9h 52m
Waxing Gibbous, 72% of the Moon is Illuminated
Nov 22
Waxing Gibbous
Nov 28
Full
Dec 6
Last Quarter
Dec 13
New
Dec 19
First Quarter

Hourly Weather History & Observations

Time (MST) Temp. Windchill Dew Point Humidity Pressure Visibility Wind Dir Wind Speed Gust Speed Precip Events Conditions
12:15 AM 47.7 °F - 4.6 °F 17% 30.17 in 10.0 mi SW 15.0 mph 24.2 mph N/A   Clear
12:35 AM 47.3 °F - 5.4 °F 18% 30.17 in 10.0 mi SW 11.5 mph 23.0 mph N/A   Clear
12:55 AM 47.8 °F - 3.9 °F 17% 30.16 in 10.0 mi WSW 13.8 mph 19.6 mph N/A   Clear
1:15 AM 48.4 °F - 3.4 °F 16% 30.15 in 10.0 mi WSW 12.7 mph 23.0 mph N/A   Clear
1:35 AM 47.8 °F - 4.5 °F 17% 30.15 in 10.0 mi SW 15.0 mph 21.9 mph N/A   Clear
1:55 AM 47.7 °F - 5.4 °F 18% 30.16 in 10.0 mi SW 17.3 mph 26.5 mph N/A   Clear
2:15 AM 47.5 °F - 7.5 °F 20% 30.16 in 10.0 mi WSW 17.3 mph 28.8 mph N/A   Clear
2:35 AM 48.2 °F - 9.1 °F 21% 30.17 in 10.0 mi WSW 15.0 mph 24.2 mph N/A   Clear
2:55 AM 48.0 °F - 10.2 °F 22% 30.18 in 10.0 mi WSW 15.0 mph 25.3 mph N/A   Clear
3:15 AM 48.2 °F - 10.8 °F 22% 30.18 in 10.0 mi West 8.1 mph 29.9 mph N/A   Clear
3:35 AM 45.5 °F 39.9 °F 7.9 °F 22% 30.19 in 10.0 mi West 11.5 mph - N/A   Clear
3:55 AM 47.3 °F - 9.5 °F 22% 30.19 in 10.0 mi WSW 11.5 mph 24.2 mph N/A   Clear
4:15 AM 45.9 °F 40.8 °F 10.6 °F 24% 30.19 in 10.0 mi West 10.4 mph 18.4 mph N/A   Clear
4:35 AM 45.5 °F 39.6 °F 11.1 °F 25% 30.19 in 10.0 mi WSW 12.7 mph 19.6 mph N/A   Clear
4:55 AM 45.7 °F 40.2 °F 11.8 °F 25% 30.19 in 10.0 mi West 11.5 mph 19.6 mph N/A   Clear
5:15 AM 46.4 °F 40.1 °F 12.6 °F 26% 30.19 in 10.0 mi West 15.0 mph 19.6 mph N/A   Clear
5:35 AM 45.7 °F 39.8 °F 12.6 °F 26% 30.20 in 10.0 mi SW 12.7 mph 23.0 mph N/A   Clear
5:55 AM 43.5 °F 37.5 °F 12.4 °F 28% 30.20 in 10.0 mi WSW 11.5 mph - N/A   Clear
6:15 AM 43.5 °F 36.1 °F 13.1 °F 29% 30.19 in 10.0 mi SW 16.1 mph 27.6 mph N/A   Clear
6:55 AM 45.3 °F 39.3 °F 13.6 °F 28% 30.22 in 10.0 mi WSW 12.7 mph 21.9 mph N/A   Clear
7:15 AM 44.8 °F 36.9 °F 14.2 °F 29% 30.22 in 10.0 mi SW 19.6 mph 23.0 mph N/A   Clear
7:35 AM 45.5 °F 39.2 °F 14.4 °F 29% 30.23 in 10.0 mi SW 13.8 mph 23.0 mph N/A   Clear
7:55 AM 43.7 °F 39.1 °F 13.6 °F 30% 30.25 in 10.0 mi North 8.1 mph - N/A   Clear
8:15 AM 47.3 °F - 14.9 °F 27% 30.25 in 10.0 mi WSW 12.7 mph 20.7 mph N/A   Clear
8:35 AM 47.8 °F - 14.9 °F 27% 30.25 in 10.0 mi SW 15.0 mph 23.0 mph N/A   Clear
8:55 AM 48.7 °F - 15.4 °F 27% 30.26 in 10.0 mi WSW 12.7 mph 26.5 mph N/A   Clear
9:15 AM 49.6 °F - 15.4 °F 26% 30.25 in 10.0 mi SW 20.7 mph 32.2 mph N/A   Clear
9:35 AM 51.4 °F - 15.8 °F 24% 30.26 in 10.0 mi SSW 20.7 mph 28.8 mph N/A   Clear
9:55 AM 52.5 °F - 15.4 °F 23% 30.27 in 10.0 mi SSW 25.3 mph 34.5 mph N/A   Clear
10:15 AM 53.8 °F - 14.7 °F 21% 30.27 in 10.0 mi South 19.6 mph 29.9 mph N/A   Clear
10:35 AM 53.6 °F - 14.7 °F 21% 30.27 in 10.0 mi SSW 20.7 mph 32.2 mph N/A   Clear
10:55 AM 53.8 °F - 14.9 °F 22% 30.27 in 10.0 mi South 19.6 mph 29.9 mph N/A   Clear
11:15 AM 55.6 °F - 14.5 °F 20% 30.27 in 10.0 mi SSW 18.4 mph 24.2 mph N/A   Clear
11:35 AM 55.6 °F - 14.7 °F 20% 30.27 in 10.0 mi SW 16.1 mph 25.3 mph N/A   Clear
11:55 AM 55.9 °F - 14.5 °F 20% 30.27 in 10.0 mi SSW 18.4 mph 33.4 mph N/A   Clear
12:15 PM 57.6 °F - 14.0 °F 18% 30.26 in 10.0 mi SW 15.0 mph 25.3 mph N/A   Clear
12:35 PM 59.4 °F - 12.0 °F 16% 30.26 in 10.0 mi WSW 15.0 mph 27.6 mph N/A   Clear
12:55 PM 59.9 °F - 11.7 °F 15% 30.25 in 10.0 mi SW 16.1 mph 19.6 mph N/A   Clear
1:15 PM 60.3 °F - 10.8 °F 14% 30.25 in 10.0 mi WSW 16.1 mph 23.0 mph N/A   Clear
1:35 PM 59.4 °F - 10.6 °F 15% 30.27 in 10.0 mi WSW 16.1 mph 24.2 mph N/A   Clear
1:55 PM 59.5 °F - 10.6 °F 14% 30.26 in 10.0 mi WSW 18.4 mph 26.5 mph N/A   Clear
2:15 PM 58.8 °F - 10.6 °F 15% 30.27 in 10.0 mi WSW 18.4 mph 28.8 mph N/A   Clear
2:35 PM 58.5 °F - 10.4 °F 15% 30.27 in 10.0 mi SW 18.4 mph 25.3 mph N/A   Clear
2:55 PM 58.3 °F - 10.8 °F 15% 30.29 in 10.0 mi WSW 16.1 mph 26.5 mph N/A   Clear
3:15 PM 57.4 °F - 11.1 °F 16% 30.29 in 10.0 mi WSW 19.6 mph 26.5 mph N/A   Clear
3:35 PM 56.3 °F - 11.1 °F 17% 30.30 in 10.0 mi WSW 16.1 mph 23.0 mph N/A   Clear
3:55 PM 54.9 °F - 12.0 °F 18% 30.32 in 10.0 mi WSW 16.1 mph 23.0 mph N/A   Clear
4:15 PM 53.2 °F - 12.6 °F 20% 30.32 in 10.0 mi WSW 12.7 mph - N/A   Clear
4:55 PM 51.8 °F - 12.7 °F 21% 30.34 in 10.0 mi SW 16.1 mph 21.9 mph N/A   Clear
5:15 PM 50.0 °F - 14.2 °F 24% 30.35 in 10.0 mi WSW 15.0 mph - N/A   Clear
5:35 PM 49.1 °F - 14.9 °F 26% 30.36 in 10.0 mi WSW 13.8 mph 17.3 mph N/A   Clear
5:55 PM 50.0 °F - 14.0 °F 24% 30.37 in 10.0 mi SW 16.1 mph 26.5 mph N/A   Clear
6:15 PM 49.3 °F - 13.5 °F 24% 30.38 in 10.0 mi WSW 11.5 mph 18.4 mph N/A   Clear
6:35 PM 49.1 °F - 12.9 °F 23% 30.40 in 10.0 mi WSW 12.7 mph - N/A   Clear
6:55 PM 48.6 °F - 12.2 °F 23% 30.40 in 10.0 mi WSW 12.7 mph - N/A   Clear
7:15 PM 47.3 °F - 12.2 °F 24% 30.41 in 10.0 mi West 10.4 mph - N/A   Clear
7:35 PM 46.4 °F 42.4 °F 12.2 °F 25% 30.42 in 10.0 mi West 8.1 mph - N/A   Clear
7:55 PM 44.4 °F 40.0 °F 18.3 °F 35% 30.43 in 10.0 mi SE 8.1 mph - N/A   Clear
8:15 PM 42.3 °F 37.3 °F 22.8 °F 46% 30.44 in 10.0 mi SSE 8.1 mph 17.3 mph N/A   Clear
8:35 PM 41.2 °F 36.6 °F 23.5 °F 50% 30.45 in 10.0 mi SE 6.9 mph - N/A   Clear
8:55 PM 40.6 °F 36.0 °F 23.7 °F 51% 30.46 in 10.0 mi SE 6.9 mph - N/A   Clear
9:15 PM 39.4 °F 33.8 °F 23.9 °F 54% 30.46 in 10.0 mi SE 8.1 mph - N/A   Clear
9:35 PM 38.7 °F 32.4 °F 24.3 °F 56% 30.48 in 10.0 mi SE 9.2 mph - N/A   Clear
9:55 PM 37.8 °F 32.5 °F 24.3 °F 58% 30.49 in 10.0 mi SE 6.9 mph - N/A   Clear
10:15 PM 36.5 °F 29.7 °F 23.9 °F 60% 30.50 in 10.0 mi SE 9.2 mph - N/A   Clear
10:35 PM 35.6 °F 28.6 °F 23.4 °F 61% 30.51 in 10.0 mi SE 9.2 mph - N/A   Clear
10:55 PM 35.1 °F 30.1 °F 23.0 °F 61% 30.51 in 10.0 mi SSE 5.8 mph - N/A   Clear
11:15 PM 34.9 °F 29.0 °F 23.0 °F 62% 30.52 in 10.0 mi SSE 6.9 mph - N/A   Clear
11:35 PM 34.2 °F 28.2 °F 23.0 °F 64% 30.52 in 10.0 mi SSE 6.9 mph - N/A   Clear
11:55 PM 33.4 °F 25.9 °F 22.8 °F 65% 30.52 in 10.0 mi SSE 9.2 mph - N/A   Clear